Location: Antioch Baptist Church
(32.6696°N, 85.7327°W)
Time: 12:04:11
(UTC+00:00)

ERBS - Pass Details

Date: 14 July 2020
Orbit: 408 x 426 km, 57.0° (Epoch: 08 August)

Event Time Altitude Azimuth Distance (km) Brightness Sun altitude
Exits shadow 08:58:51 70° 162° (SSE) 437 2.1 -19.3°
Maximum altitude 08:59:03 73° 127° (SE) 430 2.2 -19.3°
Drops below altitude 10° 09:02:19 10° 42° (NE) 1,472 6.3 -18.8°
Sets 09:04:24 0° 41° (NE) 2,334 7.7 -18.4°
